Weather History for KBIE - January, 2013

Change the Weather History Date:

Tuesday, January 22, 2013

  Actual Average Record
Temperature  
Mean Temperature 18 °F -  
Max Temperature 26 °F 38 °F 60 °F (2002)
Min Temperature 10 °F 19 °F -13 °F (1954)
Degree Days  
Heating Degree Days 47    
Moisture  
Dew Point 7 °F    
Average Humidity 61    
Maximum Humidity 77    
Minimum Humidity 48    
Precipitation  
Precipitation 0.00 in - - ()
Sea Level Pressure  
Sea Level Pressure 30.28 in    
Wind  
Wind Speed 4 mph (ESE)    
Max Wind Speed 12 mph    
Max Gust Speed -    
Visibility 10 miles    
Events      
Averages and records for this station are not official NWS values.
T = Trace of Precipitation, MM = Missing Value Source: NWS Daily Summary

Daily Weather History Graph

Daily Weather History Graph

Search for Another Location

Airport or City:

Trip Planner

Search our weather history database for the weather conditions in past years. The results will help you decide how hot, cold, wet, or windy it might be!

Date:

Astronomy

Jan. 22, 2013 Rise Set
Actual Time 7:43 AM CST 5:33 PM CST
Civil Twilight 7:14 AM CST 6:03 PM CST
Nautical Twilight 6:41 AM CST 6:36 PM CST
Astronomical Twilight 6:09 AM CST 7:08 PM CST
Moon 1:57 PM CST (1/22) 4:06 AM CST (1/22)
Length of Visible Light 10h 48m
Length of Day
9h 49m
Waxing Gibbous, 83% of the Moon is Illuminated
Jan 22
Waxing Gibbous
Jan 26
Full
Feb 3
Last Quarter
Feb 10
New
Feb 17
First Quarter

Hourly Weather History & Observations

Time (CST) Temp. Windchill Dew Point Humidity Pressure Visibility Wind Dir Wind Speed Gust Speed Precip Events Conditions
12:15 AM 14.5 °F 8.8 °F 4.3 °F 64% 30.34 in 10.0 mi SSE 3.5 mph - N/A   Overcast
12:35 AM 14.7 °F 7.3 °F 4.1 °F 63% 30.33 in 10.0 mi SSE 4.6 mph - N/A   Overcast
12:55 AM 14.7 °F - 3.9 °F 62% 30.34 in 10.0 mi Calm Calm - N/A   Overcast
1:15 AM 14.7 °F 9.0 °F 4.1 °F 63% 30.34 in 10.0 mi South 3.5 mph - N/A   Mostly Cloudy
1:55 AM 14.7 °F 9.0 °F 3.4 °F 61% 30.33 in 10.0 mi SE 3.5 mph - N/A   Scattered Clouds
2:15 AM 14.7 °F - 4.1 °F 63% 30.32 in 10.0 mi Calm Calm - N/A   Mostly Cloudy
2:35 AM 14.7 °F 9.0 °F 4.5 °F 64% 30.33 in 10.0 mi SE 3.5 mph - N/A   Mostly Cloudy
2:55 AM 14.7 °F - 4.5 °F 64% 30.32 in 10.0 mi Calm Calm - N/A   Overcast
3:15 AM 14.2 °F - 4.6 °F 66% 30.33 in 10.0 mi Calm Calm - N/A   Mostly Cloudy
3:35 AM 13.8 °F - 5.0 °F 68% 30.32 in 10.0 mi Calm Calm - N/A   Scattered Clouds
3:55 AM 12.4 °F - 4.6 °F 71% 30.31 in 10.0 mi Calm Calm - N/A   Clear
4:15 AM 12.2 °F - 5.0 °F 73% 30.31 in 10.0 mi Calm Calm - N/A   Clear
4:35 AM 11.3 °F 5.1 °F 5.2 °F 76% 30.30 in 10.0 mi East 3.5 mph - N/A   Clear
4:55 AM 10.9 °F 4.7 °F 5.0 °F 77% 30.30 in 10.0 mi East 3.5 mph - N/A   Clear
5:15 AM 10.9 °F 2.9 °F 5.0 °F 77% 30.30 in 10.0 mi East 4.6 mph - N/A   Clear
5:35 AM 11.1 °F 4.9 °F 5.0 °F 76% 30.29 in 10.0 mi ESE 3.5 mph - N/A   Clear
5:55 AM 12.2 °F 4.3 °F 5.4 °F 74% 30.29 in 10.0 mi ESE 4.6 mph - N/A   Clear
6:15 AM 12.6 °F 3.4 °F 4.3 °F 69% 30.30 in 10.0 mi ESE 5.8 mph - N/A   Clear
6:35 AM 12.6 °F 4.8 °F 3.7 °F 68% 30.29 in 10.0 mi SE 4.6 mph - N/A   Clear
6:55 AM 12.2 °F 6.1 °F 3.6 °F 68% 30.32 in 10.0 mi East 3.5 mph - N/A   Clear
7:15 AM 12.2 °F 6.1 °F 3.6 °F 68% 30.32 in 10.0 mi ESE 3.5 mph - N/A   Clear
7:35 AM 11.8 °F - 3.2 °F 68% 30.32 in 10.0 mi Calm Calm - N/A   Scattered Clouds
7:55 AM 11.5 °F 5.3 °F 3.2 °F 69% 30.33 in 10.0 mi ESE 3.5 mph - N/A   Clear
8:15 AM 11.7 °F 5.5 °F 3.7 °F 71% 30.32 in 10.0 mi ESE 3.5 mph - N/A   Scattered Clouds
8:35 AM 11.8 °F 3.9 °F 3.7 °F 70% 30.33 in 10.0 mi ESE 4.6 mph - N/A   Scattered Clouds
8:55 AM 12.9 °F 2.6 °F 3.6 °F 66% 30.33 in 10.0 mi ESE 6.9 mph - N/A   Scattered Clouds
9:15 AM 14.0 °F 2.9 °F 3.2 °F 62% 30.33 in 10.0 mi ESE 8.1 mph - N/A   Clear
9:35 AM 13.8 °F 1.0 °F 1.9 °F 59% 30.34 in 10.0 mi ESE 10.4 mph - N/A   Clear
9:55 AM 14.9 °F 1.6 °F 2.5 °F 58% 30.35 in 10.0 mi ESE 11.5 mph - N/A   Clear
10:15 AM 15.4 °F 3.8 °F 3.0 °F 58% 30.35 in 10.0 mi ESE 9.2 mph - N/A   Clear
10:35 AM 16.2 °F 4.7 °F 3.9 °F 59% 30.36 in 10.0 mi East 9.2 mph - N/A   Clear
10:55 AM 16.7 °F 5.3 °F 4.3 °F 58% 30.36 in 10.0 mi ESE 9.2 mph - N/A   Clear
11:15 AM 17.4 °F 6.2 °F 4.8 °F 58% 30.35 in 10.0 mi ESE 9.2 mph - N/A   Clear
11:35 AM 18.1 °F 7.9 °F 5.5 °F 58% 30.34 in 10.0 mi ESE 8.1 mph - N/A   Clear
11:55 AM 18.7 °F 6.3 °F 6.6 °F 59% 30.32 in 10.0 mi ESE 11.5 mph - N/A   Clear
12:15 PM 19.4 °F 8.6 °F 7.2 °F 59% 30.31 in 10.0 mi ESE 9.2 mph - N/A   Clear
12:35 PM 20.1 °F 12.3 °F 7.5 °F 58% 30.30 in 10.0 mi ESE 5.8 mph - N/A   Clear
12:55 PM 20.8 °F 10.4 °F 8.6 °F 59% 30.29 in 10.0 mi East 9.2 mph - N/A   Clear
1:15 PM 21.6 °F 14.0 °F 8.4 °F 57% 30.28 in 10.0 mi East 5.8 mph - N/A   Clear
1:35 PM 22.8 °F 13.6 °F 9.9 °F 58% 30.27 in 10.0 mi ESE 8.1 mph - N/A   Clear
1:55 PM 23.2 °F 14.1 °F 9.9 °F 57% 30.26 in 10.0 mi SE 8.1 mph - N/A   Clear
2:15 PM 23.7 °F 14.0 °F 9.9 °F 56% 30.24 in 10.0 mi ESE 9.2 mph - N/A   Clear
2:35 PM 24.8 °F 16.1 °F 10.4 °F 54% 30.24 in 10.0 mi SE 8.1 mph - N/A   Clear
2:55 PM 25.5 °F 18.7 °F 10.8 °F 54% 30.24 in 10.0 mi SE 5.8 mph - N/A   Clear
3:15 PM 25.7 °F 20.1 °F 10.6 °F 53% 30.24 in 10.0 mi SE 4.6 mph - N/A   Clear
3:35 PM 26.1 °F 19.4 °F 10.0 °F 51% 30.24 in 10.0 mi SSE 5.8 mph - N/A   Clear
3:55 PM 26.4 °F 18.9 °F 9.5 °F 49% 30.24 in 10.0 mi SE 6.9 mph - N/A   Clear
4:15 PM 26.4 °F 19.8 °F 9.5 °F 49% 30.23 in 10.0 mi SE 5.8 mph - N/A   Clear
4:35 PM 26.6 °F 20.0 °F 9.5 °F 49% 30.22 in 10.0 mi SE 5.8 mph - N/A   Clear
4:55 PM 26.6 °F 21.2 °F 9.5 °F 49% 30.22 in 10.0 mi SE 4.6 mph - N/A   Clear
5:15 PM 26.6 °F 22.6 °F 9.3 °F 48% 30.23 in 10.0 mi East 3.5 mph - N/A   Clear
5:35 PM 25.7 °F 21.5 °F 9.7 °F 51% 30.23 in 10.0 mi East 3.5 mph - N/A   Clear
5:55 PM 25.2 °F 20.9 °F 9.7 °F 52% 30.23 in 10.0 mi East 3.5 mph - N/A   Clear
6:15 PM 24.4 °F 20.1 °F 9.3 °F 53% 30.23 in 10.0 mi East 3.5 mph - N/A   Clear
6:35 PM 23.0 °F 18.4 °F 9.5 °F 56% 30.23 in 10.0 mi East 3.5 mph - N/A   Clear
6:55 PM 23.4 °F 18.9 °F 9.3 °F 55% 30.24 in 10.0 mi East 3.5 mph - N/A   Clear
7:15 PM 22.5 °F 17.8 °F 9.1 °F 57% 30.24 in 10.0 mi East 3.5 mph - N/A   Clear
7:35 PM 21.9 °F 17.2 °F 8.6 °F 57% 30.24 in 10.0 mi East 3.5 mph - N/A   Clear
7:55 PM 21.6 °F 16.8 °F 8.6 °F 57% 30.24 in 10.0 mi East 3.5 mph - N/A   Clear
8:15 PM 21.0 °F 16.2 °F 8.6 °F 59% 30.24 in 10.0 mi ESE 3.5 mph - N/A   Clear
8:35 PM 20.5 °F 15.6 °F 8.4 °F 60% 30.24 in 10.0 mi ESE 3.5 mph - N/A   Clear
8:55 PM 20.3 °F 13.8 °F 7.9 °F 59% 30.23 in 10.0 mi SE 4.6 mph - N/A   Clear
9:15 PM 20.7 °F 15.8 °F 7.7 °F 57% 30.23 in 10.0 mi SE 3.5 mph - N/A   Clear
9:35 PM 20.1 °F - 7.7 °F 59% 30.24 in 10.0 mi Calm Calm - N/A   Clear
9:55 PM 19.8 °F - 7.7 °F 60% 30.23 in 10.0 mi Calm Calm - N/A   Clear
10:15 PM 19.4 °F 14.3 °F 7.7 °F 60% 30.23 in 10.0 mi South 3.5 mph - N/A   Clear
10:35 PM 19.4 °F 12.8 °F 7.9 °F 61% 30.22 in 10.0 mi South 4.6 mph - N/A   Clear
10:55 PM 19.8 °F 13.2 °F 8.2 °F 61% 30.22 in 10.0 mi South 4.6 mph - N/A   Clear
11:15 PM 19.4 °F 12.8 °F 8.2 °F 62% 30.22 in 10.0 mi South 4.6 mph - N/A   Clear
11:35 PM 20.3 °F 13.8 °F 8.4 °F 60% 30.23 in 10.0 mi South 4.6 mph - N/A   Clear
11:55 PM 18.7 °F 13.5 °F 7.7 °F 62% 30.23 in 10.0 mi South 3.5 mph - N/A   Clear